Total_Precipitation_Accumulation
0.00 0.00 0.00 0.00 0.00 0.00 0.00 0.00 0.02 0.04 0.04 0.06 0.12 0.17 0.28 0.28 0.35 0.43 0.39 0.51 0.61 0.66 0.90 1.22 1.72 2.44 2.70 3.14 3.01 2.59 2.35 2.30 2.27 2.29 2.35 2.39 2.59 2.81 2.99 3.09 2.96 2.89 2.83 2.82
0.00 0.00 0.00 0.00 0.00 0.00 0.00 0.01 0.02 0.04 0.05 0.06 0.15 0.23 0.32 0.40 0.48 0.51 0.50 0.59 0.60 0.68 1.02 1.40 1.83 2.22 2.41 2.52 2.61 2.77 2.74 2.68 2.59 2.69 2.99 3.41 3.67 3.73 3.83 3.80 3.72 3.60 3.51 3.45
0.00 0.00 0.00 0.00 0.00 0.00 0.00 0.01 0.02 0.04 0.06 0.10 0.19 0.33 0.37 0.47 0.57 0.52 0.46 0.53 0.61 0.72 0.99 1.26 1.59 1.84 2.19 2.55 2.69 2.89 2.97 3.10 3.26 3.47 3.67 4.12 4.45 4.49 4.36 4.02 3.84 3.67 3.42 3.29
0.00 0.00 0.00 0.00 0.00 0.00 0.00 0.01 0.03 0.03 0.05 0.11 0.17 0.38 0.51 0.60 0.63 0.61 0.55 0.58 0.70 0.80 1.00 1.14 1.30 1.45 1.71 2.06 2.36 2.61 2.84 3.14 3.55 4.09 4.39 4.49 4.66 4.66 4.53 4.21 3.85 3.50 3.20 2.96
0.00 0.00 0.00 0.00 0.00 0.00 0.01 0.01 0.01 0.02 0.03 0.10 0.16 0.29 0.65 0.75 0.68 0.67 0.59 0.64 0.81 0.80 0.93 1.02 0.99 1.08 1.33 1.61 1.83 2.15 2.55 2.98 3.53 4.01 4.44 4.67 4.67 4.50 4.31 3.90 3.51 3.21 2.97 2.70
0.00 0.00 0.00 0.00 0.00 0.00 0.00 0.00 0.01 0.03 0.06 0.13 0.14 0.24 0.59 0.79 0.75 0.69 0.60 0.70 0.89 0.83 0.76 0.81 0.83 0.87 1.05 1.27 1.52 1.77 2.17 2.75 3.16 3.58 4.02 4.20 4.24 4.12 3.89 3.50 3.19 2.94 2.73 2.51
0.02 0.02 0.01 0.01 0.00 0.00 0.00 0.01 0.07 0.13 0.15 0.16 0.13 0.28 0.66 0.83 0.86 0.84 0.81 0.89 0.91 0.76 0.67 0.75 0.75 0.85 1.04 1.24 1.49 1.75 2.10 2.50 2.71 2.85 3.10 3.34 3.40 3.36 3.30 3.16 2.89 2.61 2.33 2.02
0.07 0.06 0.02 0.01 0.01 0.01 0.01 0.02 0.10 0.21 0.22 0.23 0.27 0.56 0.93 0.95 0.92 0.95 0.90 0.84 0.80 0.80 0.78 0.78 0.84 0.90 1.07 1.18 1.32 1.52 1.72 1.99 2.12 2.14 2.30 2.51 2.61 2.63 2.61 2.44 2.19 1.96 1.75 1.54
0.09 0.08 0.02 0.01 0.01 0.01 0.02 0.01 0.04 0.08 0.11 0.23 0.51 0.85 1.10 1.13 1.16 1.17 1.06 0.88 0.75 0.77 0.81 0.83 0.85 0.95 1.13 1.16 1.21 1.26 1.25 1.36 1.47 1.55 1.62 1.67 1.70 1.74 1.73 1.65 1.51 1.41 1.30 1.16
0.05 0.06 0.04 0.02 0.02 0.02 0.02 0.02 0.03 0.07 0.19 0.30 0.50 0.86 1.29 1.37 1.28 1.25 1.17 0.99 0.86 0.79 0.80 0.83 0.83 0.84 0.90 0.93 0.97 0.99 0.90 0.97 1.05 1.04 1.03 1.08 1.17 1.26 1.24 1.10 1.05 1.02 0.98 0.90
0.03 0.05 0.04 0.04 0.03 0.03 0.03 0.03 0.04 0.08 0.13 0.26 0.50 0.93 1.19 1.37 1.37 1.28 1.19 1.05 0.85 0.80 0.80 0.77 0.74 0.67 0.63 0.62 0.67 0.73 0.70 0.69 0.72 0.75 0.78 0.79 0.83 0.88 0.90 0.86 0.81 0.77 0.72 0.70
0.04 0.08 0.11 0.09 0.06 0.04 0.05 0.05 0.06 0.11 0.15 0.20 0.43 0.91 1.07 1.32 1.47 1.47 1.24 1.07 0.99 0.88 0.82 0.75 0.72 0.66 0.61 0.58 0.56 0.57 0.60 0.64 0.64 0.61 0.63 0.64 0.64 0.64 0.66 0.69 0.70 0.66 0.64 0.62
0.05 0.13 0.27 0.30 0.23 0.11 0.08 0.07 0.08 0.09 0.17 0.25 0.45 0.99 1.14 1.30 1.46 1.44 1.28 1.19 1.16 1.08 0.98 0.88 0.80 0.74 0.70 0.64 0.59 0.55 0.58 0.61 0.59 0.53 0.55 0.54 0.55 0.54 0.55 0.55 0.55 0.54 0.54 0.55
0.05 0.14 0.34 0.57 0.48 0.23 0.14 0.11 0.13 0.15 0.24 0.30 0.47 0.85 1.07 1.25 1.44 1.47 1.40 1.24 1.18 1.19 1.09 0.97 0.88 0.81 0.75 0.72 0.67 0.64 0.61 0.58 0.56 0.53 0.53 0.52 0.53 0.53 0.51 0.50 0.48 0.48 0.48 0.51
0.09 0.19 0.22 0.26 0.25 0.22 0.17 0.16 0.16 0.19 0.24 0.39 0.57 0.82 1.06 1.29 1.45 1.59 1.61 1.49 1.33 1.26 1.15 1.02 1.00 0.97 0.87 0.85 0.78 0.71 0.65 0.59 0.55 0.53 0.53 0.56 0.57 0.57 0.56 0.55 0.54 0.52 0.50 0.47
0.10 0.17 0.22 0.24 0.23 0.24 0.22 0.20 0.18 0.23 0.30 0.43 0.66 0.98 1.22 1.36 1.43 1.53 1.55 1.47 1.40 1.37 1.34 1.33 1.33 1.31 1.14 0.99 0.89 0.78 0.69 0.66 0.62 0.63 0.63 0.62 0.60 0.57 0.57 0.56 0.55 0.55 0.53 0.48
0.09 0.16 0.25 0.28 0.20 0.30 0.47 0.36 0.30 0.36 0.42 0.55 0.78 0.96 1.12 1.26 1.41 1.43 1.41 1.47 1.51 1.59 1.65 1.63 1.52 1.40 1.23 1.10 1.02 0.93 0.84 0.79 0.77 0.75 0.71 0.64 0.57 0.56 0.54 0.49 0.51 0.52 0.49 0.45
0.12 0.21 0.29 0.35 0.36 0.63 0.61 0.37 0.37 0.50 0.60 0.62 0.69 0.76 0.94 1.15 1.26 1.26 1.30 1.43 1.54 1.58 1.56 1.51 1.38 1.25 1.17 1.13 1.08 0.98 0.89 0.85 0.80 0.75 0.68 0.59 0.51 0.50 0.52 0.52 0.51 0.47 0.43 0.42
0.09 0.21 0.34 0.42 0.59 0.70 0.70 0.45 0.42 0.59 0.77 0.62 0.67 0.71 0.84 0.92 1.05 1.27 1.35 1.43 1.52 1.48 1.42 1.42 1.39 1.28 1.24 1.20 1.08 1.00 0.95 0.86 0.81 0.74 0.61 0.50 0.43 0.43 0.45 0.46 0.45 0.43 0.42 0.41
0.11 0.20 0.41 0.55 0.71 0.83 0.80 0.43 0.34 0.58 1.05 0.77 0.75 0.76 0.79 0.87 1.12 1.22 1.22 1.18 1.22 1.25 1.30 1.37 1.45 1.47 1.40 1.28 1.04 0.93 0.86 0.76 0.68 0.56 0.47 0.42 0.38 0.35 0.33 0.34 0.37 0.38 0.39 0.38
0.33 0.37 0.49 0.69 0.89 0.95 0.50 0.27 0.38 0.84 1.01 0.84 0.82 0.83 0.82 0.91 1.00 0.90 0.90 1.02 1.11 1.19 1.24 1.28 1.31 1.32 1.25 1.14 0.98 0.90 0.80 0.67 0.52 0.40 0.34 0.33 0.29 0.25 0.25 0.29 0.34 0.35 0.33 0.32
0.53 0.63 0.70 0.78 0.97 1.04 0.46 0.33 0.54 0.66 0.57 0.56 0.59 0.63 0.66 0.71 0.76 0.81 0.84 0.92 0.98 1.09 1.14 1.11 1.08 1.04 0.95 0.86 0.81 0.81 0.73 0.54 0.39 0.32 0.28 0.26 0.22 0.16 0.17 0.26 0.29 0.28 0.31 0.30
0.51 0.59 0.74 0.89 1.01 0.74 0.42 0.39 0.40 0.45 0.44 0.43 0.49 0.51 0.53 0.58 0.67 0.80 0.90 0.96 0.96 0.93 0.93 0.88 0.78 0.72 0.68 0.64 0.64 0.63 0.54 0.40 0.33 0.31 0.31 0.28 0.23 0.20 0.17 0.21 0.24 0.24 0.26 0.24
0.66 0.49 0.59 0.77 0.85 0.61 0.41 0.35 0.34 0.33 0.33 0.36 0.45 0.48 0.47 0.48 0.50 0.59 0.69 0.76 0.79 0.76 0.70 0.63 0.54 0.50 0.48 0.44 0.42 0.39 0.32 0.30 0.33 0.34 0.32 0.31 0.30 0.25 0.19 0.18 0.15 0.16 0.18 0.19
0.63 0.63 0.74 0.86 0.87 0.69 0.55 0.41 0.33 0.32 0.32 0.38 0.43 0.41 0.39 0.35 0.36 0.39 0.48 0.54 0.55 0.52 0.46 0.42 0.40 0.36 0.31 0.27 0.25 0.24 0.23 0.24 0.32 0.30 0.25 0.23 0.21 0.21 0.20 0.16 0.09 0.09 0.10 0.08
0.51 0.60 0.80 0.96 0.79 0.66 0.59 0.47 0.38 0.35 0.32 0.31 0.27 0.28 0.32 0.33 0.32 0.34 0.40 0.45 0.43 0.38 0.35 0.34 0.34 0.31 0.27 0.24 0.19 0.15 0.13 0.16 0.26 0.25 0.21 0.15 0.12 0.12 0.13 0.18 0.14 0.06 0.04 0.03